owner,sensor,date,latitude,longitude,air_temperature,qcFlag 
DISL,ioos:station:DISL:CATA:1,2017-07-01T00:00:00Z,30.3085,-88.1395,28.59,1111122 
DISL,ioos:station:DISL:CATA:1,2017-07-01T00:30:00Z,30.3085,-88.1395,28.52,1111122 
DISL,ioos:station:DISL:CATA:1,2017-07-01T01:00:00Z,30.3085,-88.1395,28.45,1111122 
DISL,ioos:station:DISL:CATA:1,2017-07-01T01:30:00Z,30.3085,-88.1395,28.38,1111122 
DISL,ioos:station:DISL:CATA:1,2017-07-01T02:00:00Z,30.3085,-88.1395,28.35,1111122 
DISL,ioos:station:DISL:CATA:1,2017-07-01T02:30:00Z,30.3085,-88.1395,28.21,1111122 
DISL,ioos:station:DISL:CATA:1,2017-07-01T03:00:00Z,30.3085,-88.1395,28.04,1111122 
DISL,ioos:station:DISL:CATA:1,2017-07-01T03:30:00Z,30.3085,-88.1395,28.07,1111122 
DISL,ioos:station:DISL:CATA:1,2017-07-01T04:00:00Z,30.3085,-88.1395,28.07,1111122 
DISL,ioos:station:DISL:CATA:1,2017-07-01T04:30:00Z,30.3085,-88.1395,28.04,1111122 
DISL,ioos:station:DISL:CATA:1,2017-07-01T05:00:00Z,30.3085,-88.1395,28.07,1111122 
DISL,ioos:station:DISL:CATA:1,2017-07-01T05:30:00Z,30.3085,-88.1395,28.0,1111122 
DISL,ioos:station:DISL:CATA:1,2017-07-01T06:30:00Z,30.3085,-88.1395,28.0,1111122 
DISL,ioos:station:DISL:CATA:1,2017-07-01T07:00:00Z,30.3085,-88.1395,27.97,1111122 
DISL,ioos:station:DISL:CATA:1,2017-07-01T07:30:00Z,30.3085,-88.1395,27.87,1111122 
DISL,ioos:station:DISL:CATA:1,2017-07-01T08:00:00Z,30.3085,-88.1395,27.93,1111122 
DISL,ioos:station:DISL:CATA:1,2017-07-01T08:30:00Z,30.3085,-88.1395,27.97,1111122 
DISL,ioos:station:DISL:CATA:1,2017-07-01T09:00:00Z,30.3085,-88.1395,27.93,1111122 
DISL,ioos:station:DISL:CATA:1,2017-07-01T09:30:00Z,30.3085,-88.1395,27.9,1111122 
DISL,ioos:station:DISL:CATA:1,2017-07-01T10:00:00Z,30.3085,-88.1395,27.87,1111122 
DISL,ioos:station:DISL:CATA:1,2017-07-01T10:30:00Z,30.3085,-88.1395,27.97,1111122 
DISL,ioos:station:DISL:CATA:1,2017-07-01T11:00:00Z,30.3085,-88.1395,27.9,1111122 
DISL,ioos:station:DISL:CATA:1,2017-07-01T11:30:00Z,30.3085,-88.1395,27.76,1111122 
DISL,ioos:station:DISL:CATA:1,2017-07-01T12:00:00Z,30.3085,-88.1395,27.76,1111122 
DISL,ioos:station:DISL:CATA:1,2017-07-01T12:30:00Z,30.3085,-88.1395,27.73,1111122 
DISL,ioos:station:DISL:CATA:1,2017-07-01T13:00:00Z,30.3085,-88.1395,28.11,1111122 
DISL,ioos:station:DISL:CATA:1,2017-07-01T13:30:00Z,30.3085,-88.1395,28.07,1111122 
DISL,ioos:station:DISL:CATA:1,2017-07-01T14:00:00Z,30.3085,-88.1395,28.11,1111122 
DISL,ioos:station:DISL:CATA:1,2017-07-01T14:30:00Z,30.3085,-88.1395,27.55,1111122 
DISL,ioos:station:DISL:CATA:1,2017-07-01T15:00:00Z,30.3085,-88.1395,27.65,1111122 
DISL,ioos:station:DISL:CATA:1,2017-07-01T15:30:00Z,30.3085,-88.1395,24.13,1111122 
DISL,ioos:station:DISL:CATA:1,2017-07-01T16:00:00Z,30.3085,-88.1395,24.41,1111122 
DISL,ioos:station:DISL:CATA:1,2017-07-01T16:30:00Z,30.3085,-88.1395,25.64,1111122 
DISL,ioos:station:DISL:CATA:1,2017-07-01T17:00:00Z,30.3085,-88.1395,25.57,1111122 
DISL,ioos:station:DISL:CATA:1,2017-07-01T17:30:00Z,30.3085,-88.1395,25.95,1111122 
DISL,ioos:station:DISL:CATA:1,2017-07-01T18:00:00Z,30.3085,-88.1395,26.56,1111122 
DISL,ioos:station:DISL:CATA:1,2017-07-01T18:30:00Z,30.3085,-88.1395,27.04,1111122 
DISL,ioos:station:DISL:CATA:1,2017-07-01T19:00:00Z,30.3085,-88.1395,27.65,1111122 
DISL,ioos:station:DISL:CATA:1,2017-07-01T19:30:00Z,30.3085,-88.1395,28.02,1111122 
DISL,ioos:station:DISL:CATA:1,2017-07-01T20:00:00Z,30.3085,-88.1395,28.29,1111122 
DISL,ioos:station:DISL:CATA:1,2017-07-01T20:30:00Z,30.3085,-88.1395,28.39,1111122 
DISL,ioos:station:DISL:CATA:1,2017-07-01T21:00:00Z,30.3085,-88.1395,28.56,1111122 
DISL,ioos:station:DISL:CATA:1,2017-07-01T21:30:00Z,30.3085,-88.1395,28.67,1111122 
DISL,ioos:station:DISL:CATA:1,2017-07-01T22:00:00Z,30.3085,-88.1395,28.94,1111122 
DISL,ioos:station:DISL:CATA:1,2017-07-01T22:30:00Z,30.3085,-88.1395,28.91,1111122 
DISL,ioos:station:DISL:CATA:1,2017-07-01T23:00:00Z,30.3085,-88.1395,28.92,1111122 
DISL,ioos:station:DISL:CATA:1,2017-07-01T23:30:00Z,30.3085,-88.1395,28.89,1111122 
DISL,ioos:station:DISL:CATA:1,2017-07-02T00:00:00Z,30.3085,-88.1395,28.93,1111122 
DISL,ioos:station:DISL:CATA:1,2017-07-02T00:30:00Z,30.3085,-88.1395,28.72,1111122 
DISL,ioos:station:DISL:CATA:1,2017-07-02T01:00:00Z,30.3085,-88.1395,28.82,1111122 
DISL,ioos:station:DISL:CATA:1,2017-07-02T01:30:00Z,30.3085,-88.1395,28.93,1111122 
DISL,ioos:station:DISL:CATA:1,2017-07-02T02:00:00Z,30.3085,-88.1395,28.86,1111122 
DISL,ioos:station:DISL:CATA:1,2017-07-02T02:30:00Z,30.3085,-88.1395,28.89,1111122 
DISL,ioos:station:DISL:CATA:1,2017-07-02T03:00:00Z,30.3085,-88.1395,28.89,1111122 
DISL,ioos:station:DISL:CATA:1,2017-07-02T03:30:00Z,30.3085,-88.1395,28.93,1111122 
DISL,ioos:station:DISL:CATA:1,2017-07-02T04:00:00Z,30.3085,-88.1395,28.89,1111122 
DISL,ioos:station:DISL:CATA:1,2017-07-02T04:30:00Z,30.3085,-88.1395,28.89,1111122 
DISL,ioos:station:DISL:CATA:1,2017-07-02T05:00:00Z,30.3085,-88.1395,28.76,1111122 
DISL,ioos:station:DISL:CATA:1,2017-07-02T05:30:00Z,30.3085,-88.1395,27.87,1111122 
DISL,ioos:station:DISL:CATA:1,2017-07-02T06:30:00Z,30.3085,-88.1395,26.94,1111122 
DISL,ioos:station:DISL:CATA:1,2017-07-02T07:00:00Z,30.3085,-88.1395,27.18,1111122 
DISL,ioos:station:DISL:CATA:1,2017-07-02T07:30:00Z,30.3085,-88.1395,27.46,1111122 
DISL,ioos:station:DISL:CATA:1,2017-07-02T08:00:00Z,30.3085,-88.1395,27.43,1111122 
DISL,ioos:station:DISL:CATA:1,2017-07-02T08:30:00Z,30.3085,-88.1395,27.66,1111122 
DISL,ioos:station:DISL:CATA:1,2017-07-02T09:00:00Z,30.3085,-88.1395,28.04,1111122 
DISL,ioos:station:DISL:CATA:1,2017-07-02T09:30:00Z,30.3085,-88.1395,27.97,1111122 
DISL,ioos:station:DISL:CATA:1,2017-07-02T10:00:00Z,30.3085,-88.1395,27.97,1111122 
DISL,ioos:station:DISL:CATA:1,2017-07-02T10:30:00Z,30.3085,-88.1395,28.04,1111122 
DISL,ioos:station:DISL:CATA:1,2017-07-02T11:00:00Z,30.3085,-88.1395,28.07,1111122 
DISL,ioos:station:DISL:CATA:1,2017-07-02T11:30:00Z,30.3085,-88.1395,28.11,1111122 
DISL,ioos:station:DISL:CATA:1,2017-07-02T12:00:00Z,30.3085,-88.1395,28.07,1111122 
DISL,ioos:station:DISL:CATA:1,2017-07-02T12:30:00Z,30.3085,-88.1395,28.28,1111122 
DISL,ioos:station:DISL:CATA:1,2017-07-02T13:00:00Z,30.3085,-88.1395,28.0,1111122 
DISL,ioos:station:DISL:CATA:1,2017-07-02T13:30:00Z,30.3085,-88.1395,28.07,1111122 
DISL,ioos:station:DISL:CATA:1,2017-07-02T14:00:00Z,30.3085,-88.1395,28.21,1111122 
DISL,ioos:station:DISL:CATA:1,2017-07-02T14:30:00Z,30.3085,-88.1395,27.97,1111122 
DISL,ioos:station:DISL:CATA:1,2017-07-02T15:00:00Z,30.3085,-88.1395,27.97,1111122 
DISL,ioos:station:DISL:CATA:1,2017-07-02T15:30:00Z,30.3085,-88.1395,27.93,1111122 
DISL,ioos:station:DISL:CATA:1,2017-07-02T16:00:00Z,30.3085,-88.1395,28.45,1111122 
DISL,ioos:station:DISL:CATA:1,2017-07-02T16:30:00Z,30.3085,-88.1395,28.45,1111122 
DISL,ioos:station:DISL:CATA:1,2017-07-02T17:00:00Z,30.3085,-88.1395,28.65,1111122 
DISL,ioos:station:DISL:CATA:1,2017-07-02T17:30:00Z,30.3085,-88.1395,28.78,1111122 
DISL,ioos:station:DISL:CATA:1,2017-07-02T18:00:00Z,30.3085,-88.1395,28.88,1111122 
DISL,ioos:station:DISL:CATA:1,2017-07-02T18:30:00Z,30.3085,-88.1395,28.78,1111122 
DISL,ioos:station:DISL:CATA:1,2017-07-02T19:00:00Z,30.3085,-88.1395,28.98,1111122 
DISL,ioos:station:DISL:CATA:1,2017-07-02T19:30:00Z,30.3085,-88.1395,29.01,1111122 
DISL,ioos:station:DISL:CATA:1,2017-07-02T20:00:00Z,30.3085,-88.1395,29.14,1111122 
DISL,ioos:station:DISL:CATA:1,2017-07-02T20:30:00Z,30.3085,-88.1395,29.45,1111122 
DISL,ioos:station:DISL:CATA:1,2017-07-02T21:00:00Z,30.3085,-88.1395,29.42,1111122 
DISL,ioos:station:DISL:CATA:1,2017-07-02T21:30:00Z,30.3085,-88.1395,29.52,1111122 
DISL,ioos:station:DISL:CATA:1,2017-07-02T22:00:00Z,30.3085,-88.1395,29.62,1111122 
DISL,ioos:station:DISL:CATA:1,2017-07-02T22:30:00Z,30.3085,-88.1395,29.66,1111122 
DISL,ioos:station:DISL:CATA:1,2017-07-02T23:00:00Z,30.3085,-88.1395,29.69,1111122 
DISL,ioos:station:DISL:CATA:1,2017-07-02T23:30:00Z,30.3085,-88.1395,29.73,1111122 
DISL,ioos:station:DISL:CATA:1,2017-07-03T00:00:00Z,30.3085,-88.1395,29.57,1111122 
DISL,ioos:station:DISL:CATA:1,2017-07-03T00:30:00Z,30.3085,-88.1395,29.41,1111122 
DISL,ioos:station:DISL:CATA:1,2017-07-03T01:00:00Z,30.3085,-88.1395,29.27,1111122 
DISL,ioos:station:DISL:CATA:1,2017-07-03T01:30:00Z,30.3085,-88.1395,29.13,1111122 
DISL,ioos:station:DISL:CATA:1,2017-07-03T02:00:00Z,30.3085,-88.1395,29.13,1111122 
DISL,ioos:station:DISL:CATA:1,2017-07-03T02:30:00Z,30.3085,-88.1395,28.93,1111122 
DISL,ioos:station:DISL:CATA:1,2017-07-03T03:00:00Z,30.3085,-88.1395,29.06,1111122 
DISL,ioos:station:DISL:CATA:1,2017-07-03T03:30:00Z,30.3085,-88.1395,28.93,1111122 
DISL,ioos:station:DISL:CATA:1,2017-07-03T04:00:00Z,30.3085,-88.1395,28.69,1111122 
DISL,ioos:station:DISL:CATA:1,2017-07-03T04:30:00Z,30.3085,-88.1395,28.79,1111122 
DISL,ioos:station:DISL:CATA:1,2017-07-03T05:00:00Z,30.3085,-88.1395,28.93,1111122 
DISL,ioos:station:DISL:CATA:1,2017-07-03T05:30:00Z,30.3085,-88.1395,28.96,1111122 
DISL,ioos:station:DISL:CATA:1,2017-07-03T06:30:00Z,30.3085,-88.1395,28.86,1111122 
DISL,ioos:station:DISL:CATA:1,2017-07-03T07:00:00Z,30.3085,-88.1395,28.62,1111122 
DISL,ioos:station:DISL:CATA:1,2017-07-03T07:30:00Z,30.3085,-88.1395,28.48,1111122 
DISL,ioos:station:DISL:CATA:1,2017-07-03T08:00:00Z,30.3085,-88.1395,28.45,1111122 
DISL,ioos:station:DISL:CATA:1,2017-07-03T08:30:00Z,30.3085,-88.1395,28.38,1111122 
DISL,ioos:station:DISL:CATA:1,2017-07-03T09:00:00Z,30.3085,-88.1395,28.45,1111122 
DISL,ioos:station:DISL:CATA:1,2017-07-03T09:30:00Z,30.3085,-88.1395,28.48,1111122 
DISL,ioos:station:DISL:CATA:1,2017-07-03T10:00:00Z,30.3085,-88.1395,28.55,1111122 
DISL,ioos:station:DISL:CATA:1,2017-07-03T10:30:00Z,30.3085,-88.1395,28.62,1111122 
DISL,ioos:station:DISL:CATA:1,2017-07-03T11:00:00Z,30.3085,-88.1395,28.41,1111122 
DISL,ioos:station:DISL:CATA:1,2017-07-03T11:30:00Z,30.3085,-88.1395,28.45,1111122 
DISL,ioos:station:DISL:CATA:1,2017-07-03T12:00:00Z,30.3085,-88.1395,28.11,1111122 
DISL,ioos:station:DISL:CATA:1,2017-07-03T12:30:00Z,30.3085,-88.1395,27.35,1111122 
DISL,ioos:station:DISL:CATA:1,2017-07-03T13:00:00Z,30.3085,-88.1395,27.45,1111122 
DISL,ioos:station:DISL:CATA:1,2017-07-03T13:30:00Z,30.3085,-88.1395,28.07,1111122 
DISL,ioos:station:DISL:CATA:1,2017-07-03T14:00:00Z,30.3085,-88.1395,28.24,1111122 
DISL,ioos:station:DISL:CATA:1,2017-07-03T14:30:00Z,30.3085,-88.1395,28.58,1111122 
DISL,ioos:station:DISL:CATA:1,2017-07-03T15:00:00Z,30.3085,-88.1395,28.67,1111122 
DISL,ioos:station:DISL:CATA:1,2017-07-03T15:30:00Z,30.3085,-88.1395,29.04,1111122 
DISL,ioos:station:DISL:CATA:1,2017-07-03T16:00:00Z,30.3085,-88.1395,29.21,1111122 
DISL,ioos:station:DISL:CATA:1,2017-07-03T16:30:00Z,30.3085,-88.1395,29.45,1111122 
DISL,ioos:station:DISL:CATA:1,2017-07-03T17:00:00Z,30.3085,-88.1395,29.28,1111122 
DISL,ioos:station:DISL:CATA:1,2017-07-03T17:30:00Z,30.3085,-88.1395,29.18,1111122 
DISL,ioos:station:DISL:CATA:1,2017-07-03T18:00:00Z,30.3085,-88.1395,29.38,1111122 
DISL,ioos:station:DISL:CATA:1,2017-07-03T18:30:00Z,30.3085,-88.1395,29.52,1111122 
DISL,ioos:station:DISL:CATA:1,2017-07-03T19:00:00Z,30.3085,-88.1395,29.9,1111122 
DISL,ioos:station:DISL:CATA:1,2017-07-03T19:30:00Z,30.3085,-88.1395,30.0,1111122 
DISL,ioos:station:DISL:CATA:1,2017-07-03T20:00:00Z,30.3085,-88.1395,29.9,1111122 
DISL,ioos:station:DISL:CATA:1,2017-07-03T20:30:00Z,30.3085,-88.1395,30.07,1111122 
DISL,ioos:station:DISL:CATA:1,2017-07-03T21:00:00Z,30.3085,-88.1395,30.21,1111122 
DISL,ioos:station:DISL:CATA:1,2017-07-03T21:30:00Z,30.3085,-88.1395,30.38,1111122 
DISL,ioos:station:DISL:CATA:1,2017-07-03T22:00:00Z,30.3085,-88.1395,30.45,1111122 
DISL,ioos:station:DISL:CATA:1,2017-07-03T22:30:00Z,30.3085,-88.1395,30.41,1111122 
DISL,ioos:station:DISL:CATA:1,2017-07-03T23:00:00Z,30.3085,-88.1395,30.24,1111122 
DISL,ioos:station:DISL:CATA:1,2017-07-03T23:30:00Z,30.3085,-88.1395,30.62,1111122 
DISL,ioos:station:DISL:CATA:1,2017-07-04T00:00:00Z,30.3085,-88.1395,30.29,1111122 
DISL,ioos:station:DISL:CATA:1,2017-07-04T00:30:00Z,30.3085,-88.1395,30.16,1111122 
DISL,ioos:station:DISL:CATA:1,2017-07-04T01:00:00Z,30.3085,-88.1395,29.78,1111122 
DISL,ioos:station:DISL:CATA:1,2017-07-04T01:30:00Z,30.3085,-88.1395,29.72,1111122 
DISL,ioos:station:DISL:CATA:1,2017-07-04T02:00:00Z,30.3085,-88.1395,29.58,1111122 
DISL,ioos:station:DISL:CATA:1,2017-07-04T02:30:00Z,30.3085,-88.1395,29.3,1111122 
DISL,ioos:station:DISL:CATA:1,2017-07-04T03:00:00Z,30.3085,-88.1395,29.48,1111122 
DISL,ioos:station:DISL:CATA:1,2017-07-04T03:30:00Z,30.3085,-88.1395,29.3,1111122 
DISL,ioos:station:DISL:CATA:1,2017-07-04T04:00:00Z,30.3085,-88.1395,29.17,1111122 
DISL,ioos:station:DISL:CATA:1,2017-07-04T04:30:00Z,30.3085,-88.1395,29.17,1111122 
DISL,ioos:station:DISL:CATA:1,2017-07-04T05:00:00Z,30.3085,-88.1395,29.2,1111122 
DISL,ioos:station:DISL:CATA:1,2017-07-04T05:30:00Z,30.3085,-88.1395,29.1,1111122 
DISL,ioos:station:DISL:CATA:1,2017-07-04T06:30:00Z,30.3085,-88.1395,29.13,1111122 
DISL,ioos:station:DISL:CATA:1,2017-07-04T07:00:00Z,30.3085,-88.1395,29.17,1111122 
DISL,ioos:station:DISL:CATA:1,2017-07-04T07:30:00Z,30.3085,-88.1395,29.13,1111122 
DISL,ioos:station:DISL:CATA:1,2017-07-04T08:00:00Z,30.3085,-88.1395,29.0,1111122 
DISL,ioos:station:DISL:CATA:1,2017-07-04T08:30:00Z,30.3085,-88.1395,28.93,1111122 
DISL,ioos:station:DISL:CATA:1,2017-07-04T09:00:00Z,30.3085,-88.1395,28.93,1111122 
DISL,ioos:station:DISL:CATA:1,2017-07-04T09:30:00Z,30.3085,-88.1395,28.86,1111122 
DISL,ioos:station:DISL:CATA:1,2017-07-04T10:00:00Z,30.3085,-88.1395,28.79,1111122 
DISL,ioos:station:DISL:CATA:1,2017-07-04T10:30:00Z,30.3085,-88.1395,28.93,1111122 
DISL,ioos:station:DISL:CATA:1,2017-07-04T11:00:00Z,30.3085,-88.1395,28.82,1111122 
DISL,ioos:station:DISL:CATA:1,2017-07-04T11:30:00Z,30.3085,-88.1395,28.93,1111122 
DISL,ioos:station:DISL:CATA:1,2017-07-04T12:00:00Z,30.3085,-88.1395,29.2,1111122 
DISL,ioos:station:DISL:CATA:1,2017-07-04T12:30:00Z,30.3085,-88.1395,29.1,1111122 
DISL,ioos:station:DISL:CATA:1,2017-07-04T13:00:00Z,30.3085,-88.1395,29.1,1111122 
DISL,ioos:station:DISL:CATA:1,2017-07-04T13:30:00Z,30.3085,-88.1395,29.17,1111122 
DISL,ioos:station:DISL:CATA:1,2017-07-04T14:00:00Z,30.3085,-88.1395,28.95,1111122 
DISL,ioos:station:DISL:CATA:1,2017-07-04T14:30:00Z,30.3085,-88.1395,28.97,1111122 
DISL,ioos:station:DISL:CATA:1,2017-07-04T15:00:00Z,30.3085,-88.1395,28.94,1111122 
DISL,ioos:station:DISL:CATA:1,2017-07-04T15:30:00Z,30.3085,-88.1395,29.01,1111122 
DISL,ioos:station:DISL:CATA:1,2017-07-04T16:00:00Z,30.3085,-88.1395,29.14,1111122 
DISL,ioos:station:DISL:CATA:1,2017-07-04T16:30:00Z,30.3085,-88.1395,29.21,1111122 
DISL,ioos:station:DISL:CATA:1,2017-07-04T17:00:00Z,30.3085,-88.1395,29.28,1111122 
DISL,ioos:station:DISL:CATA:1,2017-07-04T17:30:00Z,30.3085,-88.1395,29.35,1111122 
DISL,ioos:station:DISL:CATA:1,2017-07-04T18:00:00Z,30.3085,-88.1395,29.38,1111122 
DISL,ioos:station:DISL:CATA:1,2017-07-04T18:30:00Z,30.3085,-88.1395,29.59,1111122 
DISL,ioos:station:DISL:CATA:1,2017-07-04T19:00:00Z,30.3085,-88.1395,29.86,1111122 
DISL,ioos:station:DISL:CATA:1,2017-07-04T19:30:00Z,30.3085,-88.1395,29.86,1111122 
DISL,ioos:station:DISL:CATA:1,2017-07-04T20:00:00Z,30.3085,-88.1395,30.0,1111122 
DISL,ioos:station:DISL:CATA:1,2017-07-04T20:30:00Z,30.3085,-88.1395,30.17,1111122 
DISL,ioos:station:DISL:CATA:1,2017-07-04T21:00:00Z,30.3085,-88.1395,30.17,1111122 
DISL,ioos:station:DISL:CATA:1,2017-07-04T21:30:00Z,30.3085,-88.1395,30.24,1111122 
DISL,ioos:station:DISL:CATA:1,2017-07-04T22:00:00Z,30.3085,-88.1395,30.55,1111122 
DISL,ioos:station:DISL:CATA:1,2017-07-04T22:30:00Z,30.3085,-88.1395,30.79,1111122 
DISL,ioos:station:DISL:CATA:1,2017-07-04T23:00:00Z,30.3085,-88.1395,30.65,1111122 
DISL,ioos:station:DISL:CATA:1,2017-07-04T23:30:00Z,30.3085,-88.1395,30.75,1111122 
DISL,ioos:station:DISL:CATA:1,2017-07-05T00:00:00Z,30.3085,-88.1395,30.63,1111122 
DISL,ioos:station:DISL:CATA:1,2017-07-05T00:30:00Z,30.3085,-88.1395,30.19,1111122 
DISL,ioos:station:DISL:CATA:1,2017-07-05T01:00:00Z,30.3085,-88.1395,29.82,1111122 
DISL,ioos:station:DISL:CATA:1,2017-07-05T01:30:00Z,30.3085,-88.1395,29.68,1111122 
DISL,ioos:station:DISL:CATA:1,2017-07-05T02:00:00Z,30.3085,-88.1395,29.68,1111122 
DISL,ioos:station:DISL:CATA:1,2017-07-05T02:30:00Z,30.3085,-88.1395,29.61,1111122 
DISL,ioos:station:DISL:CATA:1,2017-07-05T03:00:00Z,30.3085,-88.1395,29.48,1111122 
DISL,ioos:station:DISL:CATA:1,2017-07-05T03:30:00Z,30.3085,-88.1395,29.54,1111122 
DISL,ioos:station:DISL:CATA:1,2017-07-05T04:00:00Z,30.3085,-88.1395,29.51,1111122 
DISL,ioos:station:DISL:CATA:1,2017-07-05T04:30:00Z,30.3085,-88.1395,29.48,1111122 
DISL,ioos:station:DISL:CATA:1,2017-07-05T05:00:00Z,30.3085,-88.1395,29.27,1111122 
DISL,ioos:station:DISL:CATA:1,2017-07-05T05:30:00Z,30.3085,-88.1395,29.37,1111122 
DISL,ioos:station:DISL:CATA:1,2017-07-05T06:30:00Z,30.3085,-88.1395,29.06,1111122 
DISL,ioos:station:DISL:CATA:1,2017-07-05T07:00:00Z,30.3085,-88.1395,29.2,1111122 
DISL,ioos:station:DISL:CATA:1,2017-07-05T07:30:00Z,30.3085,-88.1395,29.06,1111122 
DISL,ioos:station:DISL:CATA:1,2017-07-05T08:00:00Z,30.3085,-88.1395,28.96,1111122 
DISL,ioos:station:DISL:CATA:1,2017-07-05T08:30:00Z,30.3085,-88.1395,29.03,1111122 
DISL,ioos:station:DISL:CATA:1,2017-07-05T09:00:00Z,30.3085,-88.1395,29.1,1111122 
DISL,ioos:station:DISL:CATA:1,2017-07-05T09:30:00Z,30.3085,-88.1395,28.96,1111122 
DISL,ioos:station:DISL:CATA:1,2017-07-05T10:00:00Z,30.3085,-88.1395,28.93,1111122 
DISL,ioos:station:DISL:CATA:1,2017-07-05T10:30:00Z,30.3085,-88.1395,28.96,1111122 
DISL,ioos:station:DISL:CATA:1,2017-07-05T11:00:00Z,30.3085,-88.1395,28.93,1111122 
DISL,ioos:station:DISL:CATA:1,2017-07-05T11:30:00Z,30.3085,-88.1395,29.1,1111122 
DISL,ioos:station:DISL:CATA:1,2017-07-05T12:00:00Z,30.3085,-88.1395,29.13,1111122 
DISL,ioos:station:DISL:CATA:1,2017-07-05T12:30:00Z,30.3085,-88.1395,29.2,1111122 
DISL,ioos:station:DISL:CATA:1,2017-07-05T13:00:00Z,30.3085,-88.1395,29.27,1111122 
DISL,ioos:station:DISL:CATA:1,2017-07-05T13:30:00Z,30.3085,-88.1395,29.46,1111122 
DISL,ioos:station:DISL:CATA:1,2017-07-05T14:00:00Z,30.3085,-88.1395,29.59,1111122 
DISL,ioos:station:DISL:CATA:1,2017-07-05T14:30:00Z,30.3085,-88.1395,29.28,1111122 
DISL,ioos:station:DISL:CATA:1,2017-07-05T15:00:00Z,30.3085,-88.1395,29.32,1111122 
DISL,ioos:station:DISL:CATA:1,2017-07-05T15:30:00Z,30.3085,-88.1395,30.1,1111122 
DISL,ioos:station:DISL:CATA:1,2017-07-05T16:00:00Z,30.3085,-88.1395,29.52,1111122 
DISL,ioos:station:DISL:CATA:1,2017-07-05T16:30:00Z,30.3085,-88.1395,29.9,1111122 
DISL,ioos:station:DISL:CATA:1,2017-07-05T17:00:00Z,30.3085,-88.1395,29.62,1111122 
DISL,ioos:station:DISL:CATA:1,2017-07-05T17:30:00Z,30.3085,-88.1395,29.69,1111122 
DISL,ioos:station:DISL:CATA:1,2017-07-05T18:00:00Z,30.3085,-88.1395,29.69,1111122 
DISL,ioos:station:DISL:CATA:1,2017-07-05T18:30:00Z,30.3085,-88.1395,29.97,1111122 
DISL,ioos:station:DISL:CATA:1,2017-07-05T19:00:00Z,30.3085,-88.1395,29.86,1111122 
DISL,ioos:station:DISL:CATA:1,2017-07-05T19:30:00Z,30.3085,-88.1395,30.41,1111122 
DISL,ioos:station:DISL:CATA:1,2017-07-05T20:00:00Z,30.3085,-88.1395,30.55,1111122 
DISL,ioos:station:DISL:CATA:1,2017-07-05T20:30:00Z,30.3085,-88.1395,30.58,1111122 
DISL,ioos:station:DISL:CATA:1,2017-07-05T21:00:00Z,30.3085,-88.1395,30.45,1111122 
DISL,ioos:station:DISL:CATA:1,2017-07-05T21:30:00Z,30.3085,-88.1395,30.72,1111122 
DISL,ioos:station:DISL:CATA:1,2017-07-05T22:00:00Z,30.3085,-88.1395,30.41,1111122 
DISL,ioos:station:DISL:CATA:1,2017-07-05T22:30:00Z,30.3085,-88.1395,29.93,1111122 
DISL,ioos:station:DISL:CATA:1,2017-07-05T23:00:00Z,30.3085,-88.1395,30.17,1111122 
DISL,ioos:station:DISL:CATA:1,2017-07-05T23:30:00Z,30.3085,-88.1395,30.93,1111122 
DISL,ioos:station:DISL:CATA:1,2017-07-06T00:00:00Z,30.3085,-88.1395,30.97,1111122 
DISL,ioos:station:DISL:CATA:1,2017-07-06T00:30:00Z,30.3085,-88.1395,30.3,1111122 
DISL,ioos:station:DISL:CATA:1,2017-07-06T01:00:00Z,30.3085,-88.1395,29.44,1111122 
DISL,ioos:station:DISL:CATA:1,2017-07-06T01:30:00Z,30.3085,-88.1395,29.34,1111122 
DISL,ioos:station:DISL:CATA:1,2017-07-06T02:00:00Z,30.3085,-88.1395,29.48,1111122 
DISL,ioos:station:DISL:CATA:1,2017-07-06T02:30:00Z,30.3085,-88.1395,29.34,1111122 
DISL,ioos:station:DISL:CATA:1,2017-07-06T03:00:00Z,30.3085,-88.1395,29.65,1111122 
DISL,ioos:station:DISL:CATA:1,2017-07-06T03:30:00Z,30.3085,-88.1395,29.48,1111122 
DISL,ioos:station:DISL:CATA:1,2017-07-06T04:00:00Z,30.3085,-88.1395,29.51,1111122 
DISL,ioos:station:DISL:CATA:1,2017-07-06T04:30:00Z,30.3085,-88.1395,29.34,1111122 
DISL,ioos:station:DISL:CATA:1,2017-07-06T05:00:00Z,30.3085,-88.1395,29.37,1111122 
DISL,ioos:station:DISL:CATA:1,2017-07-06T05:30:00Z,30.3085,-88.1395,29.48,1111122 
DISL,ioos:station:DISL:CATA:1,2017-07-06T06:30:00Z,30.3085,-88.1395,29.24,1111122 
DISL,ioos:station:DISL:CATA:1,2017-07-06T07:00:00Z,30.3085,-88.1395,29.06,1111122 
DISL,ioos:station:DISL:CATA:1,2017-07-06T07:30:00Z,30.3085,-88.1395,29.2,1111122 
DISL,ioos:station:DISL:CATA:1,2017-07-06T08:00:00Z,30.3085,-88.1395,29.2,1111122 
DISL,ioos:station:DISL:CATA:1,2017-07-06T08:30:00Z,30.3085,-88.1395,29.06,1111122 
DISL,ioos:station:DISL:CATA:1,2017-07-06T09:00:00Z,30.3085,-88.1395,29.24,1111122 
DISL,ioos:station:DISL:CATA:1,2017-07-06T09:30:00Z,30.3085,-88.1395,29.2,1111122 
DISL,ioos:station:DISL:CATA:1,2017-07-06T10:00:00Z,30.3085,-88.1395,29.3,1111122 
DISL,ioos:station:DISL:CATA:1,2017-07-06T10:30:00Z,30.3085,-88.1395,29.17,1111122 
DISL,ioos:station:DISL:CATA:1,2017-07-06T11:00:00Z,30.3085,-88.1395,29.1,1111122 
DISL,ioos:station:DISL:CATA:1,2017-07-06T11:30:00Z,30.3085,-88.1395,29.24,1111122 
DISL,ioos:station:DISL:CATA:1,2017-07-06T12:00:00Z,30.3085,-88.1395,29.51,1111122 
DISL,ioos:station:DISL:CATA:1,2017-07-06T12:30:00Z,30.3085,-88.1395,29.48,1111122 
DISL,ioos:station:DISL:CATA:1,2017-07-06T13:00:00Z,30.3085,-88.1395,29.27,1111122 
DISL,ioos:station:DISL:CATA:1,2017-07-06T13:30:00Z,30.3085,-88.1395,29.65,1111122 
DISL,ioos:station:DISL:CATA:1,2017-07-06T14:00:00Z,30.3085,-88.1395,28.88,1111122 
DISL,ioos:station:DISL:CATA:1,2017-07-06T14:30:00Z,30.3085,-88.1395,29.09,1111122 
DISL,ioos:station:DISL:CATA:1,2017-07-06T15:00:00Z,30.3085,-88.1395,29.35,1111122 
DISL,ioos:station:DISL:CATA:1,2017-07-06T15:30:00Z,30.3085,-88.1395,30.07,1111122 
DISL,ioos:station:DISL:CATA:1,2017-07-06T16:00:00Z,30.3085,-88.1395,29.52,1111122 
DISL,ioos:station:DISL:CATA:1,2017-07-06T16:30:00Z,30.3085,-88.1395,29.69,1111122 
DISL,ioos:station:DISL:CATA:1,2017-07-06T17:00:00Z,30.3085,-88.1395,29.69,1111122 
DISL,ioos:station:DISL:CATA:1,2017-07-06T17:30:00Z,30.3085,-88.1395,29.52,1111122 
DISL,ioos:station:DISL:CATA:1,2017-07-06T18:00:00Z,30.3085,-88.1395,29.86,1111122 
DISL,ioos:station:DISL:CATA:1,2017-07-06T18:30:00Z,30.3085,-88.1395,29.83,1111122 
DISL,ioos:station:DISL:CATA:1,2017-07-06T19:00:00Z,30.3085,-88.1395,29.97,1111122 
DISL,ioos:station:DISL:CATA:1,2017-07-06T19:30:00Z,30.3085,-88.1395,30.24,1111122 
DISL,ioos:station:DISL:CATA:1,2017-07-06T20:00:00Z,30.3085,-88.1395,30.38,1111122 
DISL,ioos:station:DISL:CATA:1,2017-07-06T20:30:00Z,30.3085,-88.1395,30.21,1111122 
DISL,ioos:station:DISL:CATA:1,2017-07-06T21:00:00Z,30.3085,-88.1395,30.27,1111122 
DISL,ioos:station:DISL:CATA:1,2017-07-06T21:30:00Z,30.3085,-88.1395,30.27,1111122 
DISL,ioos:station:DISL:CATA:1,2017-07-06T22:00:00Z,30.3085,-88.1395,30.41,1111122 
DISL,ioos:station:DISL:CATA:1,2017-07-06T22:30:00Z,30.3085,-88.1395,30.48,1111122 
DISL,ioos:station:DISL:CATA:1,2017-07-06T23:00:00Z,30.3085,-88.1395,30.31,1111122 
DISL,ioos:station:DISL:CATA:1,2017-07-06T23:30:00Z,30.3085,-88.1395,30.58,1111122 
DISL,ioos:station:DISL:CATA:1,2017-07-07T00:00:00Z,30.3085,-88.1395,30.31,1111122 
DISL,ioos:station:DISL:CATA:1,2017-07-07T00:30:00Z,30.3085,-88.1395,30.15,1111122 
DISL,ioos:station:DISL:CATA:1,2017-07-07T01:00:00Z,30.3085,-88.1395,30.02,1111122 
DISL,ioos:station:DISL:CATA:1,2017-07-07T01:30:00Z,30.3085,-88.1395,29.99,1111122 
DISL,ioos:station:DISL:CATA:1,2017-07-07T02:00:00Z,30.3085,-88.1395,30.13,1111122 
DISL,ioos:station:DISL:CATA:1,2017-07-07T02:30:00Z,30.3085,-88.1395,29.96,1111122 